Total_Precipitation_Accumulation
0.34 0.04 0.04 0.08 0.48 0.50 1.76 1.60 1.90 1.11 1.54 0.64 0.86 0.59 0.93 0.20 0.49 1.03 0.69 0.33 0.52 0.12 0.27 0.05 0.05 0.07 0.80 0.42 0.15 0.28 0.19 0.99 0.13 1.58 0.95 0.64 0.41 0.52 0.48 0.52 0.60 0.55 0.29 0.30 0.37 0.59 0.72 0.47 0.74 0.88 0.98 0.71 0.66 0.82 0.61 0.57 0.77 0.67 0.72 0.49 0.27 0.27 0.28 0.10 0.06 0.05 0.05 0.04 0.04 0.02 0.05 0.04 0.07 0.08 0.07 0.05 0.10 0.07 0.05 0.04 0.10 0.07 0.06 0.11 0.13 0.08 0.04 0.04 0.04 0.04 0.06 0.06 0.05 0.08 0.10 0.08 0.11
0.07 0.02 0.07 0.26 0.59 2.29 1.81 0.78 1.50 0.90 0.61 0.69 0.53 0.90 0.54 0.55 0.66 0.67 0.36 0.90 0.42 0.31 0.04 0.11 0.04 0.06 0.13 0.03 0.07 0.08 0.12 0.15 0.08 0.13 0.26 0.31 0.42 0.49 0.29 0.36 0.20 0.30 0.25 0.20 0.22 0.49 0.43 0.69 0.72 0.73 0.62 0.48 0.43 0.41 0.56 0.78 0.53 0.61 0.38 0.23 0.25 0.19 0.12 0.07 0.05 0.05 0.03 0.03 0.04 0.10 0.06 0.06 0.09 0.07 0.05 0.07 0.08 0.09 0.06 0.07 0.10 0.08 0.10 0.09 0.11 0.08 0.07 0.06 0.05 0.03 0.05 0.05 0.06 0.10 0.10 0.13 0.10
0.05 0.09 0.20 0.54 0.40 0.61 0.80 1.00 1.33 0.84 0.89 0.72 0.38 0.46 0.54 0.39 0.79 0.59 0.46 0.24 0.11 0.04 0.09 0.09 0.07 0.21 0.21 0.06 0.13 0.24 0.22 0.16 0.07 0.08 0.37 0.37 0.45 0.67 0.29 0.18 0.26 0.20 0.25 0.26 0.23 0.36 0.36 0.50 0.31 0.60 0.59 0.55 0.28 0.39 0.53 0.45 0.28 0.32 0.45 0.19 0.28 0.13 0.11 0.05 0.04 0.03 0.04 0.05 0.07 0.06 0.06 0.09 0.11 0.06 0.04 0.09 0.10 0.10 0.17 0.07 0.11 0.06 0.13 0.08 0.12 0.09 0.09 0.10 0.07 0.05 0.08 0.07 0.07 0.11 0.11 0.13 0.11
0.11 0.19 0.61 0.48 1.79 0.89 0.69 1.34 0.70 0.91 0.75 0.33 0.54 0.42 0.48 0.64 0.58 0.51 0.28 0.18 0.15 0.06 0.12 0.20 0.43 0.03 0.16 0.08 0.09 0.06 0.10 0.24 0.11 0.06 0.52 0.49 0.23 0.30 0.18 0.24 0.17 0.15 0.19 0.28 0.21 0.26 0.37 0.35 0.24 0.29 0.37 0.34 0.22 0.35 0.28 0.23 0.25 0.19 0.22 0.13 0.14 0.15 0.07 0.06 0.02 0.04 0.02 0.03 0.03 0.04 0.05 0.09 0.04 0.07 0.06 0.10 0.10 0.21 0.15 0.11 0.11 0.10 0.15 0.16 0.17 0.10 0.07 0.11 0.11 0.12 0.13 0.09 0.05 0.07 0.11 0.10 0.14
0.17 0.35 0.32 0.77 1.15 1.53 0.86 0.82 0.36 0.60 0.68 0.54 0.49 0.23 0.16 0.12 0.40 0.07 0.08 0.28 0.07 0.23 0.05 0.12 0.10 0.13 0.10 0.12 0.16 0.46 0.14 0.12 0.12 0.06 0.13 0.15 0.07 0.14 0.14 0.18 0.21 0.22 0.22 0.16 0.20 0.27 0.24 0.21 0.23 0.18 0.25 0.22 0.14 0.20 0.18 0.18 0.14 0.14 0.19 0.14 0.13 0.06 0.06 0.05 0.06 0.04 0.03 0.02 0.04 0.07 0.08 0.06 0.06 0.10 0.08 0.07 0.16 0.11 0.14 0.17 0.12 0.10 0.15 0.09 0.13 0.11 0.14 0.13 0.15 0.16 0.14 0.10 0.07 0.08 0.09 0.10 0.13
0.15 0.22 0.24 1.05 2.38 0.66 0.96 0.71 0.61 0.31 0.42 0.12 0.34 0.35 0.40 0.46 0.50 0.14 0.17 0.17 0.14 0.28 0.07 0.14 0.12 0.18 0.10 0.04 0.06 0.09 0.05 0.30 0.12 0.09 0.13 0.17 0.13 0.20 0.16 0.15 0.22 0.20 0.22 0.22 0.22 0.19 0.35 0.13 0.25 0.17 0.12 0.18 0.11 0.11 0.12 0.15 0.10 0.13 0.14 0.08 0.06 0.06 0.05 0.07 0.06 0.03 0.03 0.07 0.04 0.07 0.10 0.10 0.03 0.09 0.05 0.10 0.12 0.12 0.10 0.13 0.09 0.14 0.09 0.11 0.13 0.07 0.10 0.08 0.16 0.14 0.09 0.04 0.06 0.07 0.06 0.08 0.09
0.39 0.55 0.97 0.82 0.72 1.14 0.63 0.46 0.13 0.22 0.19 0.14 0.16 0.42 0.43 0.19 0.27 0.30 0.03 0.14 0.13 0.08 0.05 0.05 0.02 0.05 0.17 0.11 0.04 0.04 0.04 0.02 0.09 0.07 0.03 0.10 0.14 0.11 0.12 0.17 0.20 0.22 0.23 0.17 0.14 0.15 0.21 0.11 0.14 0.15 0.16 0.13 0.12 0.12 0.11 0.09 0.06 0.06 0.08 0.07 0.05 0.05 0.05 0.05 0.06 0.06 0.04 0.05 0.04 0.09 0.09 0.06 0.08 0.08 0.08 0.09 0.08 0.11 0.09 0.08 0.07 0.07 0.07 0.07 0.04 0.07 0.09 0.09 0.12 0.08 0.05 0.03 0.03 0.04 0.16 0.18 0.11
0.06 0.54 0.50 0.74 0.46 0.50 0.46 0.13 0.17 0.23 0.08 0.35 0.13 0.28 0.07 0.05 0.15 0.36 0.05 0.14 0.01 0.05 0.06 0.07 0.08 0.13 0.16 0.02 0.30 0.18 0.06 0.02 0.03 0.01 0.02 0.05 0.08 0.13 0.15 0.17 0.27 0.21 0.20 0.15 0.15 0.21 0.14 0.11 0.12 0.19 0.19 0.13 0.12 0.11 0.16 0.09 0.05 0.08 0.07 0.04 0.08 0.08 0.08 0.04 0.01 0.04 0.04 0.05 0.03 0.06 0.05 0.06 0.08 0.09 0.04 0.04 0.03 0.03 0.02 0.04 0.03 0.07 0.04 0.03 0.08 0.07 0.10 0.06 0.04 0.04 0.03 0.03 0.01 0.01 0.05 0.07 0.05
0.07 0.52 0.25 0.63 0.58 0.31 0.19 0.13 0.21 0.24 0.01 0.01 0.15 0.19 0.06 0.01 0.08 0.07 0.06 0.03 0.02 0.02 0.04 0.07 0.05 0.13 0.30 0.14 0.24 0.17 0.11 0.04 0.00 0.00 0.02 0.05 0.10 0.12 0.11 0.14 0.17 0.19 0.16 0.12 0.10 0.16 0.25 0.07 0.10 0.11 0.13 0.10 0.12 0.11 0.12 0.06 0.05 0.07 0.06 0.09 0.04 0.05 0.03 0.03 0.02 0.02 0.06 0.06 0.09 0.05 0.08 0.07 0.03 0.04 0.02 0.04 0.03 0.01 0.01 0.02 0.02 0.02 0.03 0.02 0.02 0.05 0.04 0.04 0.03 0.03 0.03 0.03 0.01 0.02 0.03 0.03 0.05
0.46 0.23 1.10 0.43 0.18 0.40 0.04 0.13 0.30 0.27 0.27 0.29 0.51 0.23 0.30 0.06 0.08 0.20 0.02 0.02 0.02 0.03 0.04 0.04 0.02 0.20 0.11 0.19 0.13 0.15 0.13 0.03 0.01 0.02 0.03 0.04 0.05 0.06 0.08 0.11 0.10 0.08 0.13 0.18 0.07 0.11 0.15 0.18 0.11 0.09 0.15 0.12 0.14 0.10 0.08 0.10 0.07 0.03 0.04 0.04 0.06 0.02 0.01 0.01 0.02 0.07 0.07 0.08 0.09 0.04 0.06 0.08 0.01 0.01 0.01 0.01 0.02 0.02 0.01 0.02 0.01 0.01 0.03 0.01 0.02 0.03 0.04 0.02 0.03 0.04 0.03 0.03 0.02 0.04 0.03 0.05 0.12
0.57 0.12 0.10 0.87 0.41 0.31 0.16 0.04 0.15 0.02 0.11 0.22 0.17 0.16 0.30 0.17 0.10 0.22 0.06 0.04 0.02 0.01 0.03 0.02 0.07 0.09 0.05 0.13 0.20 0.11 0.03 0.02 0.01 0.04 0.05 0.04 0.04 0.08 0.09 0.16 0.08 0.06 0.12 0.16 0.09 0.14 0.28 0.27 0.15 0.12 0.13 0.14 0.14 0.09 0.12 0.22 0.06 0.05 0.02 0.03 0.03 0.02 0.01 0.03 0.02 0.03 0.05 0.03 0.04 0.04 0.01 0.03 0.02 0.02 0.01 0.01 0.02 0.01 0.01 0.00 0.01 0.01 0.01 0.00 0.00 0.00 0.01 0.00 0.01 0.04 0.03 0.04 0.03 0.06 0.05 0.07 0.12
0.57 0.43 0.25 0.58 0.41 0.25 0.13 0.18 0.05 0.07 0.22 0.35 0.40 0.17 0.29 0.04 0.05 0.00 0.03 0.08 0.01 0.00 0.01 0.03 0.10 0.04 0.07 0.12 0.17 0.24 0.06 0.03 0.04 0.01 0.05 0.04 0.06 0.05 0.08 0.07 0.08 0.09 0.08 0.19 0.09 0.10 0.17 0.25 0.37 0.25 0.08 0.09 0.13 0.18 0.10 0.09 0.05 0.03 0.05 0.04 0.01 0.01 0.02 0.01 0.02 0.02 0.03 0.03 0.05 0.04 0.16 0.18 0.08 0.09 0.12 0.10 0.01 0.00 0.01 0.01 0.01 0.01 0.01 0.01 0.00 0.02 0.02 0.05 0.05 0.03 0.04 0.05 0.05 0.03 0.05 0.10 0.20
0.42 0.59 0.54 0.72 0.33 0.16 0.34 0.10 0.17 0.12 0.10 0.11 0.03 0.04 0.08 0.17 0.08 0.00 0.02 0.00 0.00 0.01 0.01 0.05 0.01 0.00 0.02 0.09 0.16 0.12 0.10 0.05 0.02 0.01 0.03 0.03 0.03 0.05 0.05 0.06 0.04 0.05 0.06 0.07 0.14 0.17 0.19 0.15 0.26 0.32 0.23 0.09 0.20 0.15 0.13 0.05 0.15 0.04 0.02 0.01 0.01 0.01 0.01 0.02 0.01 0.03 0.01 0.02 0.09 0.24 0.16 0.25 0.20 0.13 0.22 0.14 0.09 0.01 0.00 0.01 0.01 0.02 0.02 0.02 0.03 0.01 0.04 0.04 0.03 0.04 0.07 0.06 0.03 0.05 0.07 0.05 0.14
0.14 0.44 0.68 0.58 0.03 0.03 0.14 0.04 0.04 0.17 0.19 0.03 0.28 0.12 0.09 0.02 0.05 0.08 0.03 0.04 0.00 0.02 0.01 0.01 0.00 0.01 0.11 0.03 0.44 0.18 0.05 0.04 0.02 0.03 0.02 0.04 0.02 0.04 0.04 0.04 0.06 0.06 0.08 0.12 0.10 0.14 0.23 0.19 0.22 0.18 0.25 0.31 0.31 0.27 0.21 0.15 0.03 0.02 0.01 0.01 0.02 0.01 0.01 0.02 0.01 0.03 0.01 0.01 0.04 0.13 0.20 0.18 0.23 0.31 0.20 0.23 0.22 0.03 0.00 0.00 0.01 0.03 0.04 0.04 0.03 0.06 0.07 0.04 0.05 0.05 0.08 0.07 0.13 0.16 0.24 0.20 0.23
0.08 0.24 0.42 0.19 0.30 0.08 0.03 0.25 0.01 0.13 0.27 0.02 0.09 0.21 0.31 0.22 0.40 0.28 0.20 0.11 0.05 0.00 0.00 0.00 0.00 0.00 0.07 0.02 0.11 0.05 0.02 0.04 0.02 0.01 0.03 0.03 0.03 0.04 0.04 0.07 0.08 0.09 0.08 0.15 0.13 0.17 0.20 0.13 0.18 0.23 0.22 0.25 0.28 0.28 0.25 0.12 0.16 0.10 0.06 0.03 0.01 0.03 0.03 0.01 0.01 0.01 0.00 0.04 0.06 0.23 0.17 0.19 0.37 0.39 0.19 0.23 0.13 0.04 0.02 0.00 0.00 0.02 0.03 0.04 0.04 0.07 0.06 0.05 0.04 0.06 0.10 0.06 0.08 0.10 0.18 0.17 0.11
0.01 0.05 0.14 0.19 0.41 0.22 0.02 0.06 0.00 0.10 0.03 0.03 0.01 0.06 0.40 0.11 0.10 0.14 0.17 0.25 0.10 0.00 0.00 0.00 0.00 0.03 0.01 0.00 0.01 0.00 0.00 0.01 0.02 0.02 0.03 0.06 0.06 0.06 0.06 0.07 0.13 0.17 0.12 0.17 0.17 0.16 0.15 0.10 0.18 0.17 0.25 0.22 0.26 0.22 0.17 0.19 0.12 0.03 0.02 0.03 0.01 0.00 0.00 0.01 0.00 0.01 0.00 0.00 0.05 0.19 0.17 0.27 0.32 0.28 0.19 0.43 0.28 0.07 0.09 0.03 0.00 0.01 0.04 0.02 0.05 0.04 0.03 0.05 0.05 0.04 0.07 0.07 0.06 0.05 0.06 0.08 0.09
0.01 0.03 0.32 0.30 0.31 0.28 0.01 0.04 0.07 0.21 0.02 0.01 0.33 0.09 0.04 0.03 0.02 0.07 0.03 0.20 0.05 0.00 0.00 0.00 0.00 0.00 0.00 0.00 0.00 0.00 0.01 0.00 0.01 0.02 0.04 0.10 0.10 0.17 0.21 0.19 0.19 0.22 0.23 0.25 0.16 0.16 0.18 0.13 0.10 0.16 0.13 0.14 0.08 0.12 0.17 0.16 0.16 0.07 0.04 0.01 0.01 0.00 0.00 0.01 0.00 0.01 0.00 0.00 0.08 0.13 0.16 0.11 0.05 0.08 0.07 0.14 0.10 0.10 0.08 0.03 0.01 0.00 0.01 0.02 0.07 0.04 0.06 0.06 0.08 0.08 0.07 0.06 0.12 0.09 0.11 0.06 0.11
0.03 0.20 0.27 0.26 0.36 0.16 0.01 0.22 0.04 0.01 0.08 0.00 0.03 0.01 0.23 0.00 0.00 0.00 0.00 0.07 0.01 0.00 0.00 0.00 0.00 0.00 0.00 0.00 0.00 0.00 0.01 0.01 0.03 0.02 0.05 0.08 0.08 0.14 0.18 0.20 0.17 0.25 0.20 0.28 0.23 0.16 0.15 0.13 0.15 0.13 0.17 0.13 0.15 0.16 0.08 0.09 0.10 0.15 0.13 0.07 0.16 0.04 0.03 0.03 0.03 0.05 0.03 0.10 0.00 0.12 0.05 0.05 0.06 0.07 0.14 0.06 0.16 0.03 0.13 0.09 0.00 0.00 0.04 0.03 0.09 0.08 0.06 0.07 0.09 0.06 0.06 0.05 0.07 0.12 0.07 0.13 0.25
0.04 0.06 0.12 0.61 0.31 0.14 0.08 0.04 0.17 0.08 0.01 0.04 0.06 0.03 0.00 0.01 0.00 0.00 0.02 0.00 0.00 0.02 0.00 0.00 0.00 0.00 0.00 0.00 0.00 0.00 0.01 0.02 0.01 0.02 0.03 0.03 0.04 0.04 0.07 0.11 0.08 0.13 0.17 0.18 0.28 0.19 0.13 0.11 0.08 0.08 0.09 0.13 0.17 0.15 0.14 0.07 0.10 0.11 0.10 0.10 0.04 0.02 0.06 0.07 0.04 0.05 0.06 0.11 0.09 0.14 0.10 0.22 0.10 0.11 0.12 0.11 0.11 0.05 0.09 0.02 0.08 0.01 0.02 0.02 0.08 0.11 0.07 0.12 0.12 0.08 0.10 0.09 0.11 0.11 0.11 0.12 0.31
0.01 0.01 0.42 0.21 0.23 0.03 0.01 0.03 0.03 0.01 0.03 0.01 0.01 0.01 0.00 0.04 0.00 0.00 0.02 0.00 0.00 0.06 0.02 0.00 0.00 0.00 0.00 0.01 0.00 0.00 0.01 0.01 0.01 0.01 0.01 0.02 0.02 0.03 0.07 0.06 0.07 0.04 0.08 0.10 0.13 0.16 0.12 0.10 0.07 0.05 0.07 0.08 0.08 0.15 0.08 0.14 0.10 0.16 0.09 0.10 0.18 0.04 0.03 0.09 0.05 0.04 0.06 0.15 0.06 0.07 0.10 0.12 0.08 0.06 0.07 0.09 0.06 0.02 0.08 0.02 0.08 0.10 0.09 0.06 0.05 0.08 0.03 0.04 0.07 0.06 0.10 0.20 0.09 0.21 0.22 0.34 0.44
0.00 0.01 0.05 0.40 0.19 0.08 0.07 0.02 0.00 0.05 0.00 0.01 0.02 0.00 0.00 0.01 0.00 0.06 0.01 0.01 0.01 0.00 0.02 0.00 0.00 0.00 0.00 0.00 0.00 0.00 0.01 0.01 0.03 0.01 0.01 0.02 0.02 0.01 0.05 0.03 0.08 0.04 0.05 0.06 0.11 0.09 0.10 0.14 0.15 0.08 0.09 0.08 0.08 0.07 0.17 0.07 0.11 0.13 0.13 0.16 0.19 0.04 0.15 0.11 0.07 0.08 0.13 0.13 0.06 0.08 0.11 0.03 0.08 0.06 0.15 0.04 0.09 0.07 0.09 0.15 0.12 0.19 0.16 0.17 0.03 0.18 0.22 0.13 0.14 0.25 0.55 0.36 0.30 0.39 0.40 0.42 0.56
0.00 0.01 0.01 0.03 0.21 0.07 0.07 0.11 0.01 0.00 0.00 0.02 0.00 0.01 0.13 0.00 0.01 0.01 0.01 0.37 0.13 0.01 0.00 0.00 0.00 0.00 0.00 0.00 0.00 0.00 0.00 0.00 0.01 0.01 0.00 0.00 0.01 0.01 0.03 0.01 0.03 0.02 0.03 0.08 0.07 0.07 0.09 0.10 0.07 0.09 0.09 0.08 0.06 0.05 0.04 0.06 0.06 0.12 0.19 0.04 0.08 0.03 0.03 0.08 0.11 0.05 0.07 0.05 0.20 0.15 0.03 0.03 0.10 0.26 0.14 0.03 0.06 0.08 0.10 0.23 0.08 0.07 0.10 0.09 0.19 0.16 0.09 0.10 0.15 0.10 0.21 0.22 0.37 0.55 0.44 0.56 0.36
0.00 0.00 0.00 0.00 0.00 0.13 0.22 0.07 0.01 0.00 0.00 0.01 0.01 0.00 0.00 0.00 0.00 0.00 0.02 0.29 0.00 0.03 0.00 0.00 0.00 0.00 0.00 0.00 0.00 0.01 0.00 0.00 0.00 0.00 0.00 0.00 0.01 0.00 0.01 0.04 0.05 0.02 0.01 0.03 0.03 0.07 0.07 0.09 0.06 0.05 0.09 0.07 0.05 0.05 0.05 0.10 0.11 0.05 0.06 0.05 0.04 0.05 0.06 0.05 0.04 0.22 0.05 0.05 0.11 0.04 0.04 0.15 0.12 0.08 0.10 0.07 0.07 0.08 0.10 0.09 0.08 0.12 0.11 0.17 0.12 0.11 0.07 0.14 0.11 0.17 0.22 0.43 0.23 0.39 0.64 0.70 0.54
0.00 0.00 0.00 0.00 0.00 0.01 0.12 0.19 0.01 0.00 0.00 0.00 0.00 0.00 0.00 0.00 0.05 0.01 0.00 0.01 0.00 0.00 0.00 0.00 0.00 0.00 0.00 0.00 0.00 0.00 0.00 0.00 0.00 0.01 0.00 0.00 0.00 0.00 0.00 0.03 0.01 0.01 0.01 0.01 0.03 0.05 0.07 0.08 0.04 0.05 0.05 0.07 0.09 0.06 0.05 0.09 0.11 0.09 0.07 0.07 0.05 0.02 0.05 0.03 0.18 0.14 0.04 0.14 0.19 0.08 0.01 0.05 0.06 0.05 0.08 0.13 0.17 0.13 0.11 0.19 0.09 0.07 0.10 0.18 0.12 0.06 0.04 0.11 0.12 0.36 0.17 0.65 0.49 0.43 0.25 0.16 0.28
0.00 0.00 0.00 0.00 0.00 0.01 0.00 0.00 0.01 0.00 0.00 0.00 0.00 0.00 0.00 0.00 0.00 0.00 0.00 0.00 0.00 0.00 0.00 0.00 0.00 0.00 0.00 0.00 0.00 0.00 0.00 0.01 0.00 0.00 0.00 0.00 0.01 0.00 0.02 0.00 0.00 0.00 0.00 0.02 0.01 0.03 0.03 0.04 0.08 0.04 0.05 0.05 0.05 0.05 0.04 0.03 0.04 0.06 0.03 0.07 0.05 0.04 0.02 0.06 0.06 0.09 0.05 0.03 0.14 0.13 0.08 0.08 0.04 0.05 0.07 0.10 0.21 0.51 0.49 0.24 0.21 0.20 0.04 0.07 0.05 0.27 0.26 0.27 0.48 0.38 0.42 0.59 0.55 0.39 0.19 0.19 0.12
0.00 0.00 0.00 0.00 0.00 0.00 0.00 0.00 0.00 0.00 0.00 0.00 0.00 0.00 0.00 0.00 0.00 0.00 0.00 0.00 0.00 0.00 0.00 0.00 0.00 0.00 0.00 0.00 0.00 0.00 0.00 0.00 0.00 0.00 0.00 0.00 0.00 0.01 0.01 0.00 0.00 0.00 0.00 0.00 0.01 0.02 0.03 0.03 0.04 0.05 0.02 0.03 0.04 0.05 0.03 0.04 0.03 0.03 0.03 0.03 0.05 0.06 0.08 0.02 0.06 0.09 0.08 0.09 0.07 0.07 0.08 0.08 0.08 0.04 0.07 0.09 0.18 0.57 0.46 0.26 0.10 0.09 0.11 0.17 0.08 0.35 0.25 0.26 0.44 0.49 0.39 0.19 0.13 0.10 0.17 0.14 0.13
0.00 0.00 0.00 0.00 0.00 0.00 0.00 0.00 0.00 0.00 0.00 0.00 0.00 0.00 0.00 0.00 0.00 0.01 0.00 0.00 0.00 0.00 0.00 0.00 0.00 0.00 0.00 0.00 0.00 0.00 0.00 0.00 0.00 0.00 0.00 0.00 0.00 0.00 0.00 0.00 0.00 0.00 0.00 0.00 0.02 0.04 0.03 0.03 0.04 0.03 0.02 0.02 0.03 0.03 0.02 0.02 0.02 0.03 0.02 0.02 0.04 0.03 0.03 0.04 0.06 0.08 0.12 0.17 0.10 0.03 0.04 0.13 0.06 0.04 0.05 0.28 0.44 0.66 0.27 0.09 0.18 0.15 0.09 0.18 0.29 0.13 0.10 0.15 0.34 0.17 0.20 0.07 0.10 0.21 0.18 0.12 0.15
0.00 0.00 0.00 0.00 0.00 0.00 0.00 0.00 0.00 0.00 0.00 0.00 0.00 0.01 0.00 0.00 0.00 0.00 0.00 0.00 0.00 0.00 0.00 0.00 0.00 0.00 0.00 0.00 0.00 0.00 0.00 0.00 0.00 0.00 0.00 0.00 0.00 0.01 0.00 0.01 0.00 0.00 0.00 0.00 0.02 0.01 0.01 0.02 0.05 0.03 0.03 0.03 0.02 0.02 0.02 0.02 0.02 0.03 0.05 0.03 0.04 0.02 0.02 0.02 0.04 0.03 0.04 0.14 0.14 0.06 0.02 0.02 0.04 0.03 0.08 0.30 0.25 0.13 0.11 0.12 0.12 0.07 0.09 0.09 0.07 0.10 0.07 0.06 0.08 0.06 0.17 0.39 0.31 0.22 0.24 0.40 0.26
0.00 0.00 0.00 0.00 0.00 0.00 0.00 0.00 0.00 0.00 0.00 0.00 0.00 0.02 0.00 0.00 0.00 0.00 0.00 0.00 0.00 0.00 0.00 0.00 0.00 0.00 0.00 0.00 0.00 0.00 0.00 0.00 0.00 0.00 0.00 0.00 0.00 0.00 0.00 0.00 0.01 0.00 0.00 0.03 0.00 0.00 0.00 0.01 0.01 0.02 0.01 0.02 0.02 0.01 0.02 0.01 0.03 0.02 0.02 0.02 0.03 0.04 0.02 0.02 0.02 0.01 0.05 0.03 0.06 0.02 0.03 0.03 0.01 0.01 0.04 0.06 0.02 0.03 0.04 0.04 0.06 0.09 0.11 0.17 0.18 0.21 0.11 0.16 0.21 0.15 0.28 0.39 0.34 0.25 0.24 0.31 0.46
0.00 0.00 0.00 0.00 0.00 0.00 0.00 0.00 0.00 0.00 0.00 0.00 0.00 0.10 0.00 0.00 0.00 0.00 0.00 0.00 0.00 0.00 0.01 0.00 0.01 0.00 0.00 0.00 0.00 0.00 0.00 0.00 0.00 0.00 0.00 0.00 0.00 0.00 0.01 0.01 0.00 0.01 0.00 0.02 0.00 0.01 0.01 0.02 0.01 0.04 0.02 0.02 0.01 0.01 0.01 0.01 0.02 0.01 0.01 0.01 0.02 0.02 0.04 0.04 0.02 0.00 0.02 0.03 0.01 0.01 0.04 0.06 0.01 0.01 0.02 0.03 0.04 0.09 0.03 0.09 0.07 0.17 0.23 0.42 0.16 0.60 0.42 0.28 0.24 0.23 0.16 0.22 0.29 0.45 0.41 0.25 0.23
0.00 0.00 0.00 0.00 0.00 0.00 0.00 0.00 0.00 0.00 0.00 0.00 0.00 0.09 0.01 0.00 0.00 0.00 0.00 0.00 0.00 0.01 0.00 0.03 0.01 0.00 0.01 0.00 0.01 0.01 0.00 0.00 0.00 0.00 0.00 0.00 0.00 0.00 0.02 0.00 0.01 0.01 0.00 0.01 0.00 0.00 0.00 0.01 0.01 0.02 0.02 0.02 0.02 0.02 0.01 0.01 0.02 0.03 0.01 0.01 0.02 0.03 0.03 0.01 0.00 0.01 0.01 0.01 0.01 0.06 0.10 0.01 0.06 0.10 0.05 0.08 0.06 0.05 0.07 0.10 0.21 0.14 0.25 0.25 0.16 0.19 0.14 0.13 0.20 0.37 0.71 0.41 0.28 0.19 0.19 0.13 0.13
0.00 0.00 0.00 0.00 0.00 0.00 0.00 0.00 0.00 0.00 0.00 0.00 0.00 0.05 0.03 0.00 0.00 0.00 0.00 0.00 0.00 0.00 0.00 0.00 0.00 0.00 0.01 0.02 0.02 0.03 0.03 0.00 0.00 0.00 0.00 0.00 0.00 0.00 0.01 0.00 0.00 0.00 0.00 0.02 0.02 0.01 0.00 0.04 0.04 0.01 0.01 0.01 0.03 0.01 0.01 0.01 0.02 0.04 0.01 0.01 0.00 0.01 0.00 0.01 0.03 0.01 0.02 0.02 0.02 0.08 0.09 0.04 0.05 0.19 0.19 0.11 0.11 0.05 0.05 0.14 0.30 0.36 0.19 0.12 0.14 0.13 0.08 0.18 0.16 0.24 0.24 0.14 0.13 0.12 0.09 0.04 0.01
0.00 0.00 0.00 0.01 0.00 0.00 0.00 0.00 0.00 0.00 0.00 0.00 0.00 0.04 0.00 0.00 0.00 0.00 0.00 0.00 0.00 0.00 0.02 0.00 0.00 0.00 0.00 0.00 0.03 0.03 0.02 0.02 0.00 0.00 0.00 0.02 0.00 0.00 0.02 0.00 0.00 0.00 0.03 0.02 0.02 0.01 0.01 0.01 0.01 0.01 0.01 0.00 0.03 0.01 0.00 0.00 0.03 0.02 0.01 0.01 0.01 0.00 0.01 0.06 0.05 0.02 0.04 0.04 0.01 0.01 0.10 0.08 0.06 0.16 0.16 0.20 0.13 0.21 0.29 0.17 0.13 0.13 0.17 0.12 0.13 0.14 0.18 0.12 0.05 0.15 0.22 0.16 0.07 0.13 0.05 0.04 0.13
0.00 0.00 0.00 0.00 0.00 0.00 0.00 0.00 0.00 0.00 0.00 0.00 0.00 0.00 0.00 0.00 0.00 0.00 0.00 0.00 0.00 0.00 0.03 0.00 0.00 0.00 0.01 0.02 0.01 0.01 0.05 0.05 0.04 0.02 0.02 0.01 0.01 0.02 0.01 0.02 0.03 0.05 0.00 0.02 0.01 0.00 0.00 0.00 0.00 0.00 0.00 0.01 0.01 0.01 0.01 0.00 0.06 0.02 0.01 0.04 0.02 0.02 0.05 0.03 0.02 0.05 0.05 0.04 0.15 0.24 0.11 0.12 0.11 0.12 0.28 0.29 0.21 0.12 0.07 0.08 0.06 0.10 0.10 0.08 0.11 0.19 0.13 0.09 0.05 0.08 0.25 0.12 0.06 0.06 0.05 0.01 0.01
0.00 0.00 0.00 0.00 0.00 0.00 0.00 0.00 0.00 0.00 0.00 0.00 0.00 0.00 0.00 0.00 0.00 0.00 0.00 0.00 0.00 0.00 0.00 0.02 0.00 0.04 0.01 0.02 0.01 0.04 0.04 0.04 0.05 0.02 0.02 0.01 0.00 0.01 0.01 0.01 0.01 0.00 0.00 0.00 0.00 0.00 0.00 0.00 0.00 0.00 0.00 0.00 0.00 0.00 0.00 0.01 0.01 0.02 0.01 0.03 0.08 0.04 0.04 0.03 0.03 0.06 0.03 0.10 0.11 0.12 0.08 0.11 0.16 0.18 0.09 0.10 0.06 0.04 0.03 0.05 0.06 0.07 0.07 0.07 0.07 0.12 0.06 0.07 0.07 0.07 0.07 0.07 0.05 0.07 0.03 0.02 0.02
0.00 0.00 0.00 0.00 0.00 0.00 0.01 0.00 0.00 0.00 0.00 0.00 0.00 0.01 0.00 0.01 0.00 0.00 0.00 0.00 0.00 0.00 0.00 0.02 0.02 0.11 0.05 0.05 0.03 0.03 0.06 0.06 0.01 0.07 0.02 0.00 0.01 0.01 0.01 0.00 0.00 0.01 0.01 0.00 0.01 0.00 0.00 0.00 0.00 0.00 0.00 0.00 0.00 0.01 0.01 0.01 0.02 0.06 0.03 0.03 0.02 0.03 0.05 0.11 0.04 0.02 0.13 0.29 0.13 0.09 0.06 0.14 0.07 0.07 0.08 0.03 0.02 0.02 0.03 0.06 0.13 0.10 0.09 0.11 0.06 0.05 0.05 0.05 0.06 0.09 0.10 0.08 0.11 0.11 0.10 0.09 0.07
0.00 0.00 0.00 0.00 0.00 0.00 0.00 0.00 0.00 0.00 0.00 0.00 0.00 0.00 0.00 0.00 0.00 0.00 0.00 0.00 0.00 0.00 0.00 0.00 0.02 0.02 0.03 0.10 0.08 0.06 0.06 0.05 0.02 0.03 0.04 0.01 0.01 0.00 0.00 0.00 0.01 0.01 0.00 0.00 0.00 0.00 0.00 0.00 0.00 0.01 0.01 0.00 0.01 0.01 0.02 0.05 0.07 0.05 0.02 0.02 0.08 0.05 0.05 0.07 0.04 0.06 0.13 0.19 0.13 0.06 0.09 0.07 0.09 0.14 0.11 0.04 0.01 0.05 0.06 0.09 0.07 0.03 0.02 0.03 0.04 0.07 0.07 0.05 0.08 0.07 0.10 0.07 0.11 0.03 0.01 0.01 0.01
0.00 0.00 0.00 0.00 0.00 0.00 0.00 0.00 0.00 0.00 0.00 0.00 0.00 0.00 0.00 0.00 0.00 0.00 0.00 0.00 0.00 0.00 0.00 0.00 0.00 0.01 0.02 0.04 0.06 0.02 0.05 0.02 0.03 0.03 0.02 0.05 0.04 0.00 0.00 0.00 0.00 0.00 0.00 0.00 0.00 0.00 0.00 0.01 0.01 0.01 0.02 0.00 0.00 0.02 0.05 0.02 0.03 0.06 0.02 0.03 0.02 0.04 0.04 0.05 0.03 0.02 0.06 0.07 0.06 0.07 0.09 0.12 0.11 0.09 0.11 0.11 0.11 0.18 0.16 0.04 0.02 0.03 0.03 0.03 0.07 0.05 0.06 0.04 0.06 0.09 0.06 0.16 0.06 0.02 0.00 0.00 0.00
0.00 0.00 0.00 0.00 0.00 0.00 0.00 0.00 0.00 0.00 0.00 0.00 0.00 0.00 0.02 0.00 0.00 0.00 0.00 0.00 0.00 0.00 0.00 0.00 0.00 0.01 0.01 0.05 0.04 0.01 0.02 0.03 0.02 0.05 0.06 0.01 0.00 0.01 0.01 0.00 0.00 0.00 0.00 0.00 0.00 0.00 0.00 0.00 0.00 0.00 0.00 0.01 0.02 0.02 0.01 0.03 0.03 0.02 0.01 0.01 0.01 0.01 0.01 0.01 0.01 0.03 0.02 0.02 0.02 0.03 0.07 0.07 0.03 0.06 0.03 0.06 0.09 0.15 0.13 0.04 0.06 0.05 0.04 0.07 0.05 0.07 0.05 0.09 0.08 0.10 0.17 0.07 0.02 0.01 0.01 0.00 0.02
0.00 0.00 0.00 0.00 0.00 0.00 0.00 0.00 0.00 0.00 0.00 0.00 0.00 0.00 0.00 0.01 0.00 0.00 0.00 0.00 0.00 0.00 0.00 0.00 0.00 0.01 0.01 0.03 0.02 0.03 0.01 0.01 0.04 0.02 0.03 0.02 0.04 0.00 0.00 0.00 0.00 0.00 0.00 0.00 0.00 0.00 0.00 0.00 0.00 0.00 0.00 0.02 0.01 0.01 0.03 0.01 0.00 0.00 0.00 0.01 0.00 0.01 0.03 0.01 0.00 0.01 0.02 0.02 0.03 0.01 0.08 0.08 0.06 0.07 0.10 0.13 0.06 0.10 0.04 0.08 0.09 0.08 0.11 0.09 0.10 0.09 0.07 0.14 0.07 0.13 0.15 0.08 0.05 0.04 0.02 0.02 0.05
0.00 0.00 0.00 0.00 0.00 0.00 0.00 0.00 0.00 0.00 0.00 0.00 0.00 0.00 0.00 0.07 0.02 0.01 0.00 0.00 0.00 0.00 0.00 0.00 0.00 0.00 0.01 0.01 0.01 0.00 0.03 0.03 0.07 0.05 0.02 0.01 0.00 0.00 0.00 0.00 0.00 0.00 0.00 0.00 0.00 0.00 0.00 0.00 0.00 0.00 0.00 0.00 0.00 0.00 0.00 0.00 0.02 0.01 0.02 0.01 0.01 0.01 0.00 0.01 0.02 0.02 0.01 0.02 0.03 0.02 0.08 0.07 0.10 0.07 0.08 0.14 0.05 0.02 0.02 0.04 0.03 0.04 0.04 0.11 0.10 0.07 0.12 0.17 0.18 0.18 0.18 0.08 0.08 0.08 0.06 0.04 0.03
0.00 0.00 0.00 0.00 0.00 0.00 0.00 0.00 0.00 0.00 0.00 0.00 0.00 0.02 0.06 0.14 0.05 0.03 0.00 0.00 0.00 0.00 0.00 0.00 0.00 0.00 0.00 0.00 0.01 0.00 0.00 0.00 0.00 0.03 0.03 0.02 0.02 0.01 0.00 0.00 0.00 0.00 0.00 0.00 0.00 0.00 0.00 0.00 0.00 0.00 0.00 0.00 0.00 0.00 0.00 0.00 0.00 0.00 0.02 0.03 0.01 0.01 0.01 0.01 0.00 0.00 0.01 0.01 0.01 0.01 0.06 0.14 0.12 0.07 0.01 0.03 0.01 0.01 0.02 0.03 0.03 0.03 0.09 0.06 0.07 0.11 0.20 0.11 0.15 0.12 0.19 0.16 0.09 0.10 0.05 0.10 0.03
0.00 0.00 0.00 0.00 0.00 0.00 0.00 0.00 0.00 0.01 0.03 0.01 0.00 0.03 0.05 0.03 0.17 0.09 0.01 0.01 0.00 0.00 0.00 0.00 0.00 0.00 0.00 0.00 0.00 0.01 0.01 0.01 0.00 0.00 0.02 0.09 0.04 0.02 0.04 0.00 0.00 0.00 0.00 0.00 0.00 0.00 0.00 0.00 0.00 0.00 0.00 0.00 0.00 0.00 0.00 0.00 0.00 0.01 0.00 0.01 0.00 0.01 0.01 0.00 0.00 0.00 0.00 0.00 0.00 0.01 0.01 0.01 0.01 0.01 0.01 0.01 0.01 0.01 0.02 0.04 0.07 0.03 0.08 0.09 0.07 0.07 0.09 0.13 0.21 0.16 0.12 0.12 0.17 0.17 0.14 0.09 0.03
0.00 0.00 0.00 0.00 0.00 0.00 0.00 0.00 0.00 0.00 0.00 0.00 0.00 0.00 0.03 0.02 0.02 0.01 0.00 0.00 0.00 0.00 0.00 0.00 0.00 0.00 0.00 0.00 0.00 0.00 0.00 0.02 0.00 0.00 0.00 0.01 0.02 0.01 0.00 0.00 0.00 0.00 0.00 0.00 0.00 0.00 0.00 0.00 0.00 0.00 0.00 0.00 0.00 0.00 0.00 0.00 0.00 0.00 0.00 0.00 0.00 0.00 0.00 0.00 0.00 0.00 0.00 0.00 0.01 0.01 0.01 0.01 0.01 0.01 0.01 0.01 0.01 0.02 0.02 0.01 0.01 0.03 0.04 0.03 0.06 0.14 0.10 0.13 0.17 0.11 0.14 0.13 0.17 0.08 0.07 0.05 0.03
0.00 0.00 0.00 0.00 0.00 0.00 0.00 0.00 0.00 0.00 0.00 0.01 0.01 0.00 0.06 0.00 0.00 0.00 0.01 0.00 0.01 0.01 0.00 0.00 0.00 0.00 0.00 0.00 0.00 0.00 0.00 0.01 0.00 0.00 0.00 0.01 0.00 0.01 0.01 0.00 0.00 0.01 0.00 0.00 0.00 0.00 0.00 0.00 0.00 0.00 0.00 0.00 0.00 0.00 0.00 0.00 0.00 0.00 0.00 0.00 0.00 0.00 0.00 0.00 0.00 0.00 0.00 0.00 0.00 0.00 0.00 0.00 0.00 0.01 0.01 0.02 0.03 0.01 0.01 0.00 0.01 0.02 0.01 0.04 0.03 0.09 0.04 0.08 0.09 0.10 0.11 0.10 0.09 0.06 0.06 0.04 0.05
0.00 0.00 0.00 0.00 0.00 0.00 0.00 0.00 0.00 0.00 0.00 0.00 0.00 0.00 0.07 0.01 0.00 0.00 0.00 0.00 0.01 0.01 0.00 0.01 0.00 0.01 0.01 0.01 0.01 0.01 0.00 0.00 0.00 0.01 0.00 0.00 0.00 0.01 0.02 0.02 0.01 0.00 0.00 0.00 0.00 0.00 0.00 0.00 0.00 0.00 0.00 0.00 0.00 0.00 0.00 0.00 0.00 0.00 0.00 0.00 0.00 0.00 0.00 0.00 0.00 0.00 0.00 0.00 0.00 0.00 0.00 0.00 0.00 0.01 0.01 0.01 0.01 0.00 0.01 0.00 0.00 0.01 0.02 0.03 0.02 0.02 0.05 0.05 0.05 0.05 0.06 0.04 0.02 0.05 0.02 0.02 0.03
0.00 0.00 0.00 0.00 0.00 0.00 0.00 0.00 0.00 0.00 0.00 0.00 0.00 0.01 0.00 0.02 0.00 0.00 0.00 0.00 0.00 0.00 0.00 0.00 0.01 0.01 0.01 0.00 0.02 0.01 0.00 0.00 0.01 0.00 0.02 0.00 0.02 0.01 0.00 0.01 0.00 0.00 0.00 0.00 0.00 0.00 0.00 0.00 0.00 0.00 0.00 0.00 0.00 0.00 0.00 0.00 0.00 0.00 0.00 0.00 0.00 0.00 0.00 0.00 0.00 0.00 0.00 0.00 0.00 0.00 0.00 0.00 0.00 0.00 0.00 0.00 0.01 0.00 0.00 0.00 0.00 0.01 0.01 0.01 0.01 0.04 0.02 0.03 0.03 0.02 0.03 0.01 0.02 0.02 0.03 0.03 0.06
0.00 0.00 0.00 0.00 0.00 0.00 0.00 0.00 0.00 0.00 0.00 0.00 0.00 0.00 0.00 0.03 0.00 0.00 0.00 0.00 0.00 0.00 0.00 0.00 0.00 0.00 0.00 0.00 0.01 0.00 0.00 0.01 0.00 0.02 0.01 0.00 0.01 0.00 0.00 0.01 0.00 0.00 0.00 0.00 0.00 0.00 0.00 0.00 0.00 0.00 0.00 0.00 0.00 0.00 0.00 0.00 0.00 0.00 0.00 0.00 0.00 0.00 0.00 0.00 0.00 0.00 0.00 0.00 0.00 0.00 0.00 0.00 0.00 0.00 0.00 0.00 0.00 0.00 0.00 0.00 0.00 0.00 0.01 0.01 0.01 0.01 0.01 0.01 0.01 0.04 0.02 0.02 0.03 0.02 0.02 0.03 0.08
0.00 0.00 0.00 0.00 0.00 0.00 0.00 0.00 0.00 0.00 0.00 0.00 0.00 0.00 0.00 0.00 0.00 0.00 0.00 0.00 0.00 0.00 0.00 0.00 0.00 0.00 0.00 0.00 0.01 0.00 0.00 0.01 0.01 0.00 0.01 0.01 0.00 0.00 0.00 0.00 0.02 0.00 0.00 0.00 0.00 0.00 0.00 0.00 0.00 0.00 0.00 0.00 0.00 0.00 0.00 0.00 0.00 0.00 0.00 0.00 0.00 0.00 0.00 0.00 0.00 0.00 0.00 0.00 0.00 0.00 0.00 0.00 0.00 0.00 0.00 0.00 0.00 0.00 0.00 0.00 0.00 0.00 0.00 0.00 0.00 0.00 0.00 0.00 0.01 0.01 0.02 0.01 0.01 0.01 0.02 0.04 0.03
0.00 0.00 0.00 0.00 0.00 0.00 0.00 0.00 0.00 0.00 0.00 0.00 0.00 0.00 0.00 0.00 0.00 0.00 0.00 0.00 0.00 0.00 0.00 0.00 0.00 0.00 0.00 0.00 0.00 0.00 0.00 0.00 0.01 0.00 0.00 0.00 0.01 0.01 0.00 0.00 0.00 0.00 0.00 0.00 0.00 0.00 0.00 0.00 0.00 0.00 0.00 0.00 0.00 0.00 0.00 0.00 0.00 0.00 0.00 0.00 0.00 0.00 0.00 0.00 0.00 0.00 0.00 0.00 0.00 0.00 0.00 0.00 0.00 0.00 0.00 0.00 0.00 0.00 0.00 0.00 0.00 0.00 0.00 0.00 0.00 0.00 0.00 0.00 0.00 0.00 0.00 0.01 0.01 0.01 0.01 0.01 0.01
0.00 0.00 0.00 0.00 0.00 0.00 0.00 0.00 0.00 0.00 0.00 0.00 0.00 0.00 0.00 0.00 0.00 0.00 0.00 0.00 0.00 0.00 0.00 0.00 0.00 0.00 0.00 0.00 0.01 0.00 0.00 0.00 0.00 0.01 0.02 0.01 0.00 0.01 0.02 0.00 0.01 0.00 0.00 0.00 0.00 0.00 0.00 0.00 0.00 0.00 0.00 0.00 0.00 0.00 0.00 0.00 0.00 0.00 0.00 0.00 0.00 0.00 0.00 0.00 0.00 0.00 0.00 0.00 0.00 0.00 0.00 0.00 0.00 0.00 0.00 0.00 0.00 0.00 0.00 0.00 0.00 0.00 0.00 0.00 0.00 0.00 0.00 0.00 0.01 0.01 0.01 0.01 0.01 0.01 0.00 0.01 0.04
0.00 0.00 0.00 0.00 0.00 0.00 0.00 0.00 0.00 0.00 0.00 0.00 0.01 0.00 0.00 0.00 0.00 0.00 0.00 0.00 0.00 0.00 0.00 0.00 0.00 0.00 0.00 0.01 0.00 0.00 0.00 0.00 0.00 0.00 0.01 0.01 0.01 0.01 0.01 0.00 0.00 0.00 0.00 0.00 0.00 0.00 0.00 0.00 0.00 0.00 0.00 0.00 0.00 0.00 0.00 0.00 0.00 0.00 0.00 0.00 0.00 0.00 0.00 0.00 0.00 0.00 0.00 0.00 0.00 0.00 0.00 0.00 0.00 0.00 0.00 0.00 0.00 0.00 0.00 0.00 0.00 0.00 0.00 0.00 0.00 0.00 0.00 0.00 0.00 0.01 0.01 0.01 0.02 0.01 0.01 0.01 0.02
0.00 0.00 0.00 0.00 0.00 0.00 0.00 0.00 0.00 0.00 0.00 0.00 0.00 0.00 0.00 0.00 0.00 0.00 0.00 0.00 0.00 0.00 0.00 0.00 0.00 0.00 0.00 0.00 0.00 0.01 0.00 0.00 0.00 0.00 0.00 0.02 0.01 0.04 0.04 0.00 0.00 0.00 0.00 0.00 0.00 0.00 0.00 0.00 0.00 0.00 0.00 0.00 0.00 0.00 0.00 0.00 0.00 0.00 0.00 0.00 0.00 0.00 0.00 0.00 0.00 0.00 0.00 0.00 0.00 0.00 0.00 0.00 0.00 0.00 0.00 0.00 0.00 0.00 0.00 0.00 0.00 0.00 0.00 0.00 0.00 0.00 0.00 0.00 0.00 0.00 0.01 0.00 0.01 0.01 0.01 0.01 0.02
0.00 0.00 0.00 0.00 0.00 0.00 0.00 0.00 0.00 0.00 0.00 0.00 0.00 0.00 0.00 0.00 0.00 0.00 0.00 0.00 0.00 0.00 0.00 0.00 0.00 0.00 0.00 0.00 0.00 0.00 0.04 0.01 0.00 0.00 0.00 0.00 0.00 0.02 0.04 0.03 0.01 0.01 0.00 0.00 0.00 0.00 0.00 0.00 0.00 0.00 0.00 0.00 0.00 0.00 0.00 0.00 0.00 0.00 0.00 0.00 0.00 0.00 0.00 0.00 0.00 0.00 0.00 0.00 0.00 0.00 0.00 0.00 0.00 0.00 0.00 0.00 0.00 0.00 0.00 0.00 0.00 0.00 0.00 0.00 0.00 0.00 0.00 0.01 0.01 0.02 0.01 0.01 0.01 0.01 0.01 0.00 0.01
0.00 0.00 0.00 0.00 0.00 0.00 0.00 0.00 0.00 0.00 0.00 0.00 0.00 0.00 0.00 0.00 0.00 0.00 0.00 0.00 0.00 0.00 0.00 0.00 0.00 0.00 0.00 0.00 0.00 0.00 0.02 0.00 0.03 0.06 0.03 0.02 0.04 0.04 0.00 0.03 0.00 0.00 0.00 0.00 0.00 0.00 0.00 0.00 0.00 0.00 0.00 0.00 0.00 0.00 0.00 0.00 0.00 0.00 0.00 0.00 0.00 0.00 0.00 0.00 0.00 0.00 0.00 0.00 0.00 0.00 0.00 0.00 0.00 0.00 0.00 0.00 0.00 0.00 0.00 0.00 0.00 0.00 0.00 0.00 0.00 0.00 0.00 0.00 0.00 0.00 0.01 0.03 0.03 0.02 0.03 0.03 0.04
0.00 0.00 0.00 0.00 0.00 0.00 0.00 0.00 0.00 0.00 0.00 0.00 0.00 0.00 0.00 0.00 0.00 0.00 0.00 0.00 0.00 0.00 0.00 0.00 0.00 0.00 0.00 0.00 0.00 0.00 0.01 0.01 0.02 0.02 0.03 0.02 0.01 0.01 0.03 0.04 0.00 0.00 0.00 0.00 0.00 0.02 0.00 0.00 0.00 0.00 0.00 0.00 0.00 0.00 0.00 0.00 0.00 0.00 0.00 0.00 0.00 0.00 0.00 0.00 0.00 0.00 0.00 0.00 0.00 0.00 0.00 0.00 0.00 0.00 0.00 0.00 0.00 0.00 0.00 0.00 0.00 0.00 0.00 0.00 0.00 0.01 0.00 0.00 0.01 0.00 0.03 0.01 0.02 0.01 0.02 0.02 0.04
0.00 0.00 0.00 0.00 0.00 0.00 0.00 0.00 0.00 0.00 0.00 0.00 0.00 0.00 0.00 0.00 0.00 0.00 0.00 0.00 0.00 0.00 0.00 0.00 0.00 0.00 0.00 0.00 0.00 0.00 0.00 0.01 0.01 0.01 0.01 0.03 0.01 0.03 0.03 0.01 0.00 0.00 0.00 0.00 0.01 0.01 0.00 0.00 0.00 0.00 0.00 0.00 0.00 0.00 0.00 0.00 0.00 0.00 0.00 0.00 0.00 0.00 0.00 0.00 0.00 0.00 0.00 0.00 0.00 0.00 0.00 0.00 0.00 0.00 0.00 0.00 0.00 0.00 0.00 0.00 0.00 0.02 0.02 0.01 0.01 0.02 0.00 0.00 0.01 0.01 0.01 0.01 0.01 0.02 0.02 0.01 0.02
0.00 0.00 0.00 0.00 0.00 0.00 0.00 0.00 0.00 0.00 0.00 0.00 0.00 0.00 0.00 0.00 0.00 0.00 0.00 0.00 0.00 0.00 0.00 0.00 0.00 0.00 0.00 0.00 0.00 0.00 0.00 0.00 0.00 0.00 0.03 0.01 0.04 0.04 0.00 0.00 0.00 0.00 0.00 0.00 0.00 0.00 0.00 0.00 0.00 0.00 0.00 0.00 0.00 0.00 0.00 0.00 0.00 0.00 0.00 0.00 0.00 0.00 0.00 0.00 0.00 0.00 0.00 0.00 0.00 0.00 0.00 0.00 0.00 0.00 0.00 0.00 0.02 0.03 0.04 0.01 0.00 0.00 0.00 0.01 0.02 0.02 0.03 0.01 0.01 0.01 0.02 0.01 0.02 0.02 0.01 0.01 0.01